Regional Weather Roundup
Issued by NWS

Home | Current Version | Previous Version | Text Only | Print | Product List | Glossary Off
Versions: 1 2 3 4 5 6 7 8 9 10 11 12 13 14 15 16 17 18 19 20 21 22 23 24 25 26 27 28 29 30 31 32 33 34 35 36 37 38 39 40 41 42 43 44 45 46 47 48 49 50

000
ASUS45 KPSR 280900
RWRAZ

ARIZONA HOURLY REGIONAL WEATHER ROUNDUP
NATIONAL WEATHER SERVICE PHOENIX AZ
200 AM MST THU MAY 28 2015

NOTE: FAIR INDICATES FEW OR NO CLOUDS BELOW 12,000 FEET WITH NO
SIGNIFICANT WEATHER AND/OR OBSTRUCTIONS TO VISIBILITY.

AZZ001>003-036-281000-
NORTHWEST ARIZONA

CITY           SKY/WX    TMP DP  RH WIND       PRES   REMARKS
KINGMAN        CLEAR     59  19  21 S7        30.01R
$$

AZZ004>008-015-016-018-281000-
NORTH CENTRAL ARIZONA

CITY           SKY/WX    TMP DP  RH WIND       PRES   REMARKS
GRAND CANYON   CLEAR     38  33  82 CALM      30.19F
WILLIAMS       PTCLDY    41  30  65 S9        30.26S
PRESCOTT       CLEAR     51  28  41 S8        30.10S
FLAGSTAFF      NOT AVBL
PAYSON         CLEAR     54  27  35 CALM      30.13S
PAGE           CLEAR     65  40  39 W5        30.04S
$$

AZZ009>014-017-281000-
NORTHEAST ARIZONA

CITY           SKY/WX    TMP DP  RH WIND       PRES   REMARKS
WINSLOW        NOT AVBL
SAINT JOHNS    CLEAR     52  22  30 S3        30.14R
WINDOW ROCK    CLEAR     50  29  44 CALM      30.18S
$$

AZZ023-281000-
GREATER PHOENIX AREA

CITY           SKY/WX    TMP DP  RH WIND       PRES   REMARKS
PHOENIX        CLEAR     78  36  21 W3        29.87R
LUKE AFB       CLEAR     68  37  32 N2        29.87R
DEER VALLEY    CLEAR     72  31  22 NE8       29.89R
SCOTTSDALE     CLEAR     71  38  29 NW3       29.90S
$$

AZZ027-028-281000-
SOUTHWEST MARICOPA COUNTY AND PINAL COUNTY

CITY           SKY/WX    TMP DP  RH WIND       PRES   REMARKS
CASA GRANDE    CLEAR     68  28  22 CALM      29.90R
GILA BEND      FAIR      71  35  26 S8        29.87R
$$

AZZ503-504-507>509-281000-
SOUTHEAST ARIZONA

CITY           SKY/WX    TMP DP  RH WIND       PRES   REMARKS
TUCSON         CLEAR     69  30  23 SW7       29.99S
DAVIS-MONTHAN  CLEAR     67  30  24 CALM      29.97S
NOGALES        CLEAR     60  26  27 CALM      30.05S
SIERRA VISTA   CLEAR     63  19  18 SW10      30.10R
SAFFORD        CLEAR     71  25  17 NW9       29.96S
$$

AZZ020-021-025-026-031-281000-
SOUTHWEST ARIZONA

CITY           SKY/WX    TMP DP  RH WIND       PRES   REMARKS
YUMA           NOT AVBL
$$

CAZ031-033-041-043-047-048-061-281000-
SOUTHERN CALIFORNIA

CITY           SKY/WX    TMP DP  RH WIND       PRES   REMARKS
DOWNTOWN L.A.  CLEAR     58  54  86 CALM      29.96F
L.A. AIRPORT   PTCLDY    58  55  90 W7        29.97F
SAN DIEGO      CLOUDY    63  54  72 NW6       29.98F
BURBANK        CLEAR     58  51  78 CALM      29.96F
ONTARIO        CLEAR     57  52  83 CALM      29.96F
RIVERSIDE      CLEAR     58  53  84 CALM      29.97F
PALM SPRINGS   CLEAR     74  51  44 CALM      29.86S
EL CENTRO NAS  CLEAR     75  44  33 NW3       29.82F
IMPERIAL       CLEAR     73  46  38 E6        29.80F
BLYTHE         CLEAR     76  40  27 SW6       29.83S
$$

NVZ020-UTZ003-281000-
SOUTHERN NEVADA-UTAH

CITY           SKY/WX    TMP DP  RH WIND       PRES   REMARKS
LAS VEGAS      NOT AVBL
SALT LAKE CITY PTCLDY    53  50  89 SE5       30.10F
$$

NMZ009-TXZ055-281000-
NEW MEXICO-WEST TEXAS

CITY           SKY/WX    TMP DP  RH WIND       PRES   REMARKS
ALBUQUERQUE    MOCLDY    58  31  35 CALM      30.08R
EL PASO        CLOUDY    73  50  44 SW5       29.99S
$$


........................KEY........................
SKY/WX - SKY CONDITION/WEATHER
TMP    - TEMPERATURE IN FAHRENHEIT
DP     - DEW POINT IN FAHRENHEIT
RH     - RELATIVE HUMIDITY IN PERCENT
WIND   - DIRECTION AND SPEED IN MILES PER HOUR (MPH)
VRB    - VARIABLE WIND DIRECTION
PRES   - MEAN SEA LEVEL PRESSURE IN INCHES OF MERCURY
         F - FALLING PRESSURE   R - RISING PRESSURE
         S - STEADY PRESSURE
VSB    - VISIBILITY IN MILES
HX     - HEAT INDEX IN FAHRENHEIT
WCI    - WIND CHILL INDEX IN FAHRENHEIT
TC     - TEMPERATURE IN CELSIUS WHICH IS ALSO KNOWN AS
         TEMPERATURE IN CENTIGRADE
AFB    - AIR FORCE BASE
         LUKE AFB IS LUKE AIR FORCE BASE
         DAVIS-MONTHAN IS DAVIS-MONTHAN AIR FORCE BASE
NAS    - NAVAL AIR STATION
         EL CENTRO NAS IS EL CENTRO NAVAL AIR STATION
N/A    - NOT AVAILABLE



USA.gov is the U.S. government's official web portal to all federal, state and local government web resources and services.